Other Surface Observations
Issued by NWS

Current Version | Previous Version | Text Only | Print | Product List | Glossary On
Versions: 1 2 3 4 5 6 7 8 9 10 11 12 13 14 15 16 17 18 19 20 21 22 23 24 25 26 27 28 29 30 31 32 33 34 35 36 37 38 39 40 41 42 43 44 45 46 47 48 49 50
000
SXUS52 KTAE 310618
OSOTAE
OSOTAE
North Florida/South Alabama/Southwest Georgia Weather Roundup
National Weather Service Tallahassee Florida
100 AM EST SAT JAN 31 2015

Note: "fair" indicates few or no clouds below 12,000 feet with no
significant weather and/or obstructions to visibility.

!FLZ017-115-028-034-025-310700
...North Florida...

CITY           SKY/WX    TMP DP  RH WIND       PRES   REMARKS
TALLAHASSEE    PTCLDY    35  28  75 CALM      30.30F
APALACHICOLA   PTCLDY    48  33  56 N6        30.30S
PERRY          PTCLDY    37  34  90 CALM      30.31S
CROSS CITY       N/A     36  32  85 N3        30.28S
JACKSONVILLE   MOCLDY    44  32  62 N5        30.28S WCI  42
$$

!FLZ112-006-005-002-011-310700
...Florida Panhandle...

CITY           SKY/WX    TMP DP  RH WIND       PRES   REMARKS
MARIANNA       MOCLDY    44  29  55 N5        30.31S WCI  42
BONIFAY        FAIR      40  32  73 CALM      30.33S
PANAMA CITY NW FAIR      38  34  85 N3        30.31F
TYNDALL AFB    PTCLDY    47  33  57 N6        30.31F WCI  45
TYND DRONE APT FAIR      46  35  64 N9        30.30F WCI  42
DE FUNIAK SPR  FAIR      40  30  66 NW3       30.33S
EGLIN AFB      MOCLDY    42  28  57 N6        30.31F WCI  39
DESTIN         PTCLDY    49  30  48 N9        30.32F WCI  45
HURLBURT       PTCLDY    39  32  73 N6        30.32F WCI  35
CRESTVIEW      MOCLDY    37  31  78 N5        30.34F WCI  33
PENSACOLA      PTCLDY    45  32  60 N6        30.33F WCI  42
$$

!ALZ063-066-310700
...South Alabama...

CITY           SKY/WX    TMP DP  RH WIND       PRES   REMARKS
DOTHAN         MOCLDY    42  25  50 N9        30.34F WCI  37
OZARK CAIRNS   PTCLDY    43  23  45 N10       30.31F WCI  38
FT RUCKER HELI MOCLDY    43  24  47 NE7       30.31F WCI  39
RUCKER HELI 3  FAIR      42  24  49 N8        30.33F WCI  37
RUCKER HELI 2  FAIR      43  23  45 N8        30.31F WCI  38
FLORALA APT    MOCLDY    36  29  75 VRB3      30.34F
ANDALUSIA      MOCLDY    41  29  62 CALM      30.34S
TROY           MOCLDY    40  25  55 N7        30.34F WCI  35
EUFALA         FAIR      39  25  57 CALM      30.32F
MOBILE         CLEAR     40  31  70 N7        30.34F WCI  35
$$

!GAZ120>161-310700
...Southwest and South Central Georgia...

CITY           SKY/WX    TMP DP  RH WIND       PRES   REMARKS
THOMASVILLE    FAIR      45  28  53 N6        30.31S WCI  41
BAINBRIDGE     MOCLDY    46  30  53 NE6       30.32S WCI  43
MOODY AFB      MOCLDY    42  27  56 N9        30.29F WCI  36
VALDOSTA       MOCLDY    43  28  55 N7        30.30S WCI  39
MOULTRIE       MOCLDY    45  28  53 N10       30.31S WCI  39
BLAKELY        MOCLDY    45  28  53 N5        30.33S WCI  42
ALBANY         MOCLDY    44  22  41 N8        30.34F WCI  39
TIFTON         FAIR      41  25  52 N6        30.30F WCI  37
FITZGERALD     FAIR      42  22  43 N9        30.34F WCI  37
CORDELE        FAIR      39  26  60 CALM      30.34S
AMERICUS       FAIR      37  23  56 N6        30.34F WCI  33
HOMERVILLE     FAIR      45  32  61 N5        30.31S WCI  42
$$

!GMZ750-755-770-775-310700
...Coastal and Buoy Obs...

STATION/POSITION TIME  TEMP    WIND        PRES    VSBY  WAVE
                       AIR SEA DIR/SP/G                  HT/PER
                 (UTC) (F)     (DEG/KT/KT) (MB)    (MI)  (FT/S)
KEATON BEACH     0600   44      10/  1/  2 1025.9F
CEDAR KEY        0556   50      30/  6/  8 1025.7S
C TOWER          0600   55      20/ 22/ 25 1025.4S
APALACHICOLA BUO 0600   60 67   40/ 17/ 21 1024.5F         4/ 5
PANAMA CITY BUOY 0539   61 69   50/ 17/ 21 1025.2S         4/ 5
MOBILE BUOY      0519   59 68   50/ 17/ 21 1026.3F         4/ 5
ORANGE BCH AL BU 0600   55 62   30/ 19/ 23 1025.7F         2/ 4
$$



USA.gov is the U.S. government's official web portal to all federal, state and local government web resources and services.